sat.trackr.live / text

‹ back to catalog

ECHOSTAR 18

NORAD 41592 · 2016-039B

PAYLOAD ACTIVE UNKNOWN

§ Identity

Operator
Country
US
Launch date
2016-06-18
Launch site
FRGUI
Launch vehicle
Mass (kg)
RCS (m²)
37.71

Purposes: comms

External: N2YO · Heavens-Above · Gunter

§ Orbital elements

Epoch: 2026-09-20T01:47:05.930016Z

Period
1,436.14 min
Inclination
0.0242°
Eccentricity
0.0001762
Mean motion
1.00268456 rev/d
Perigee alt
35,780.1 km
Apogee alt
35,795.0 km
Semi-major
42,165.7 km
B*
0.0000e+0
RAAN
153.5892°
Arg perigee
15.3094°
Mean anomaly
155.5012°
Rev number
3,757

§ Raw data

ECHOSTAR 181 41592U 16039B   26263.07437419  .00000000  00000+0  00000+0 0  99922 41592   0.0242 153.5892 0001762  15.3094 155.5012  1.00268456 37575

JSON: /api/v1/satellites/41592 · /tle

For live sub-satellite position, see the globe view (requires WebGL).

§ Visibility from observer

Set your observer location to see the next 7 days of passes ≥ 10°. The values pass through the URL so the page stays shareable.

No JS? Fill the form by hand. The geolocation button needs JavaScript.